Regional Weather Roundup
Issued by NWS

Home | Current Version | Previous Version | Text Only | Print | Product List | Glossary On
Versions: 1 2 3 4 5 6 7 8 9 10 11 12 13 14 15 16 17 18 19 20 21 22 23 24 25 26 27 28 29 30 31 32 33 34 35 36 37 38 39 40 41 42 43 44 45 46 47 48 49 50
000
ASUS42 KFFC 260510
RWRGA
WEATHER ROUNDUP FOR GEORGIA
NATIONAL WEATHER SERVICE PEACHTREE CITY GA
1200 AM EST SUN FEB 26 2017

NOTE: "FAIR" INDICATES FEW OR NO CLOUDS BELOW 12,000 FEET WITH NO
SIGNIFICANT WEATHER AND/OR OBSTRUCTIONS TO VISIBILITY.

* = USE WITH CAUTION. THE STATIONS MARKED WITH AN ASTERISK MAY NOT
REPORT WEATHER SUCH AS PRECIPITATION, FOG, OR THUNDER AND ARE NOT
QUALITY CONTROLLED BY NWS.

THE REMARK "TC" DENOTES TEMPERATURE READING IN DEGREES CELSIUS.

GAZ001>058-260600-
NORTH GEORGIA

CITY           SKY/WX    TMP DP  RH WIND       PRES   REMARKS
ATLANTA        CLEAR     45  23  42 NW14      30.06S
ATHENS         CLEAR     46  19  34 NW9       30.04R
CHAMBLEE       CLEAR     44  19  36 NW10      30.06S
PEACHTREE CITY CLEAR     44  24  45 NW8       30.09R
ROME           PTCLDY    40  23  50 CALM      30.10S
WEST ATLANTA   CLEAR     44  22  41 N5        30.07S
GAINESVILLE    CLEAR     42  19  39 NW13G22   30.05R
CARTERSVILLE   CLEAR     40  25  55 CALM      30.10S


CITY           SKY/WX    TMP DP  RH WIND       PRES   REMARKS
DALTON*        CLEAR     37  23  56 N6        30.10S WCI  33
MARIETTA       CLEAR     43  21  40 NW7       30.06F
CANTON*        CLEAR     41  10  28 NW3       30.07S
$$

GAZ059>098-102>109-260600-
CENTRAL GEORGIA

CITY           SKY/WX    TMP DP  RH WIND       PRES   REMARKS
AUGUSTA-BUSH   CLEAR     55  22  27 NW12      30.00R
AUGUSTA-DANIEL CLEAR     54  20  26 W10G18    30.00R
COLUMBUS       CLEAR     49  21  33 N5        30.10R
MACON          CLEAR     50  23  34 NW8       30.07R
ROBINS AFB     CLEAR     49  25  38 NW10      30.06R


CITY           SKY/WX    TMP DP  RH WIND       PRES   REMARKS
LAGRANGE*      CLEAR     44  29  56 CALM      30.10S
SYLVANIA*      CLEAR    N/A N/A N/A NW10      30.00R
MILLEDGEVILLE* CLEAR     50  32  50 NW8       30.06R
$$

GAZ099>101-110>166-260600-
SOUTH GEORGIA

CITY           SKY/WX    TMP DP  RH WIND       PRES   REMARKS
SAVANNAH       CLEAR     60  22  23 NW13      29.98R
VALDOSTA       CLEAR     50  30  46 CALM      30.04R
ALMA           CLEAR     57  26  30 NW8       30.02R
ST SIMONS      CLEAR     62  29  28 NW9       29.98R
FT STEWART     CLEAR     58  26  29 NW6       29.98R
ALBANY         CLEAR     53  26  35 NW6       30.10R
HUNTER AFB     CLEAR     59  30  33 W6        29.96R
MOODY AFB      CLEAR     56  25  30 NW8       30.03R
BRUNSWICK      CLEAR     61  34  36 NW7       30.00R


CITY           SKY/WX    TMP DP  RH WIND       PRES   REMARKS
BAINBRIDGE*    CLEAR     54  32  43 NW7       30.08S
MOULTRIE*      CLEAR     57  27  30 NW7       30.07R
VIDALIA*       CLEAR     55  32  41 NW10G18   30.02R
WAYCROSS*      CLEAR     59  32  35 NW9       30.02R
DOUGLAS*       CLEAR     57  21  24 NW5       30.05R
$$



USA.gov is the U.S. government's official web portal to all federal, state and local government web resources and services.